Tracking 17554 objects as of 6-February-2016
HD Live streaming from Space Station
objects crossing your sky now

SJ-7

Track SJ-7 now!
10-day predictions
SJ-7 is classified as:


NORAD ID: 28737
Int'l Code: 2005-024A
Perigee: 567.1 km
Apogee: 612.3 km
Inclination: 97.7 °
Period: 96.3 minutes
Semi major axis: 6960 km
RCS: 3.0015 m2 (large)
Launch date: July 5, 2005
Source: People's Republic of China (PRC)
Launch site: Jiuquan Satellite Launch Center, China (JSC)
Your satellite tracking list
Your tracking list is empty





NASA's NSSDC Master Catalog

Two Line Element Set (TLE):
1 28737U 05024A   16037.53885759  .00000810  00000-0  78708-4 0  9998
2 28737  97.6642  49.8504 0032528 168.8713 191.3209 14.9493931858747
Source of the keplerian elements: AFSPC

N2YO: 302